Location: Antioch Baptist Church
(32.1738°N, 83.5593°W)
Time: 07:16:49
(UTC+00:00)

Daily predictions for brighter satellites

Satellite Brightness Start Highest point End
(mag) Time Altitude Azimuth Time Altitude Azimuth Time Altitude Azimuth
CZ-4B R/B 3.3 12:00:41 10° NNE 12:06:22 90° SSE 12:11:56 10° SSW
Cosmos 2278 Rocket 2.3 12:01:03 10° NNW 12:06:37 59° WSW 12:12:09 10° S
NOSS 3-2 (C) 3.7 12:02:24 10° SSW 12:07:45 69° ESE 12:13:42 10° NE
PAYLOAD B 4.3 12:04:45 10° N 12:10:12 57° WNW 12:15:40 10° SSW
Cosmos 2237 Rocket 3.2 12:06:24 10° WSW 12:10:50 23° WNW 12:15:18 10° N
Cosmos 2279 Rocket 4.1 23:15:02 10° N 23:21:13 59° E 23:27:21 10° SSE
YAOGAN 1 4.2 23:21:34 10° E 23:23:50 14° ENE 23:26:07 10° NE
Cosmos 1892 Rocket 3.5 23:19:43 10° S 23:24:02 68° E 23:28:21 10° NNE
Cosmos 773 Rocket 4.1 23:21:33 10° N 23:26:34 53° ENE 23:31:33 10° SSE
CZ-4B R/B 3.5 23:21:15 10° S 23:26:43 79° WSW 23:32:20 10° NNW
SL-24 R/B 4.5 23:23:43 10° S 23:27:58 71° W 23:32:24 10° NNW
Cosmos 1606 Rocket 3.5 23:24:58 10° N 23:29:21 74° E 23:33:46 10° S
Cosmos 1818 3.6 23:24:06 10° SSW 23:29:28 77° ESE 23:34:55 10° NNE
H-2A R/B 3.7 23:26:15 10° N 23:30:18 37° WNW 23:34:16 10° SW
Centaur D-1AR AC-48 4.3 23:08:36 10° WSW 23:32:18 38° S 23:37:33 10° ESE
USA 267 4.1 23:27:08 10° ENE 23:32:56 34° SE 23:38:42 10° S
X-37B 2.3 23:36:45 10° W 23:39:29 26° NNW 23:42:15 10° NNE
Cosmos 2228 3.4 23:35:52 10° NNW 23:40:06 70° W 23:44:22 10° S
Meteor 2-10 Rocket 3.8 23:35:20 10° N 23:40:33 47° ENE 23:45:33 10° SSE
SJ 16-02 1.4 23:36:23 10° S 23:40:43 61° ESE 23:45:03 10° NNE
Cosmos 1603 4.3 23:37:18 10° NNW 23:42:58 65° WSW 23:48:38 10° S
DELTA 2 R/B (1) 3.7 23:39:04 10° WNW 23:44:38 83° SSW 23:50:11 10° ESE
SKYMED 2 3.8 23:42:00 10° N 23:46:20 75° WNW 23:50:39 10° SSW
YAOGAN 3 4.5 23:42:46 10° SSE 23:47:05 70° ENE 23:51:25 10° N
MOS 1 Rocket 3.0 23:44:23 10° NNE 23:48:40 81° ESE 23:52:58 10° S
Cosmos 1340 4.0 23:46:34 10° SE 23:49:15 19° E 23:50:17 17° ENE
Cosmos 1455 3.1 23:46:30 10° NNE 23:49:46 27° E 23:53:03 10° SE
Cosmos 1703 4.1 23:46:37 10° SSE 23:49:58 29° E 23:53:18 10° NNE
ISS -1.6 23:51:16 10° W 23:53:53 21° NW 23:56:30 10° NNE
